Theta_e
291 292 293 294 295 298 301 304 309 313 314 319 322 322 322 322 322 321 321 321 320 320 320 319 316 314 314 313 313 311 310 309 308 309 308 305 302 300 299 297 297 297 297
291 291 292 292 293 295 298 302 306 310 313 316 318 317 315 314 317 318 318 317 316 314 311 310 307 307 307 306 305 303 302 300 300 301 300 299 297 296 295 294 294 294 295
290 290 290 291 291 293 294 298 302 304 306 308 309 310 308 308 308 310 308 310 309 307 305 305 302 302 300 299 298 297 297 296 295 296 295 294 293 292 291 291 291 292 293
290 290 289 289 290 292 293 295 297 299 301 302 302 302 302 302 303 301 307 304 303 300 299 297 297 296 295 295 295 294 294 293 293 292 292 291 291 289 289 288 289 288 291
289 289 289 290 290 291 293 294 295 297 297 298 299 299 298 297 296 298 298 297 295 294 293 293 293 293 294 294 293 292 291 291 290 290 290 289 289 288 287 286 286 286 287
289 289 288 290 290 290 291 291 292 292 293 294 295 295 295 293 293 294 294 293 293 292 291 290 291 291 290 291 290 289 289 289 288 289 288 288 287 286 285 285 284 285 286
288 288 288 288 289 288 289 289 288 290 290 290 291 293 292 292 292 293 293 292 291 290 289 289 289 289 290 290 289 288 288 288 287 286 286 285 285 284 284 283 284 284 284
287 287 287 287 287 288 288 288 288 289 288 287 288 289 290 289 290 291 290 290 289 289 288 288 288 288 289 288 288 288 287 287 286 286 285 285 284 284 283 283 283 283 284
286 286 286 287 287 287 286 286 286 286 287 287 287 288 288 288 288 288 289 288 288 287 288 287 288 287 286 286 288 287 287 286 285 285 285 284 284 283 283 283 282 282 283
286 286 286 287 287 287 286 286 287 286 286 286 286 287 288 287 286 287 287 288 287 287 287 286 286 285 286 287 287 286 286 284 286 286 285 285 284 283 282 282 282 281 281
286 286 286 286 286 285 285 285 285 285 286 286 286 285 284 285 286 287 287 287 287 286 286 285 285 286 286 286 285 285 285 284 283 284 284 284 283 281 281 281 282 282 281
286 286 286 286 286 285 285 285 284 285 284 284 284 284 284 285 285 286 286 286 286 286 285 285 285 285 285 285 285 283 282 282 283 283 282 281 281 281 280 280 281 282 280
287 287 287 287 286 286 285 285 285 284 284 284 284 284 283 283 284 284 285 286 285 285 285 285 285 284 284 284 281 282 284 284 283 280 280 281 280 280 280 280 280 281 280
287 286 286 285 285 284 284 284 284 285 285 285 285 284 284 284 285 285 285 285 285 285 285 285 284 283 282 281 282 283 284 284 280 280 280 280 280 280 280 280 279 279 279
287 286 285 285 285 285 285 285 285 285 285 285 285 285 285 285 285 285 285 285 285 284 284 283 283 282 282 283 283 283 283 283 280 279 279 279 279 279 279 279 279 278 277
285 285 286 285 285 285 285 284 282 283 285 285 284 284 285 284 285 285 285 285 285 284 283 282 282 282 283 283 283 282 281 281 278 278 278 278 279 278 278 278 277 277 276
288 288 287 286 285 285 284 284 283 282 282 283 283 283 283 284 285 285 285 285 284 283 283 282 283 283 283 282 282 281 280 279 279 278 277 277 278 278 277 277 277 276 275
289 288 287 287 286 285 285 285 284 284 283 283 283 283 283 284 284 285 285 284 283 282 282 282 283 283 282 282 282 281 280 280 280 279 279 279 278 278 277 277 277 275 275
288 287 287 286 286 286 285 285 284 284 284 284 283 282 282 282 283 283 284 284 283 282 282 282 282 282 283 282 282 281 280 280 279 280 279 280 279 279 279 278 277 276 276
288 288 287 286 285 285 285 284 283 283 284 284 284 284 283 281 282 283 283 283 283 282 283 283 283 282 283 283 282 282 281 280 280 280 280 280 280 279 279 278 278 277 277
287 287 287 286 285 285 284 284 283 283 283 284 284 284 283 283 284 283 283 282 282 282 282 282 282 282 283 283 282 282 282 281 281 280 280 280 280 279 278 278 277 277 276
287 286 285 284 284 284 283 283 283 283 283 283 284 283 282 283 283 283 283 283 283 282 282 282 282 282 282 282 281 281 280 280 280 280 280 280 279 279 279 278 276 276 277
287 286 285 284 284 284 283 283 282 283 283 284 284 283 282 282 282 282 283 283 282 282 282 282 282 282 281 280 278 278 277 277 278 278 278 278 278 278 278 278 278 275 275
285 285 285 284 283 283 283 282 282 283 283 283 283 283 283 283 283 283 282 282 282 281 281 281 281 281 280 280 279 278 277 277 278 278 277 276 276 275 276 276 276 276 275
284 284 284 284 284 283 283 282 282 283 283 283 283 283 283 283 283 283 282 282 281 281 281 280 280 280 279 278 278 278 277 277 277 276 275 275 274 274 274 274 274 275 275
284 284 284 284 284 283 283 282 282 282 283 283 283 283 283 284 283 283 282 282 281 281 280 280 280 279 278 278 277 277 276 276 275 274 274 274 273 273 273 273 273 273 273
Wind_Speed
19 18 17 14 13 10 8 9 8 7 8 7 7 7 8 10 10 9 8 10 9 9 9 10 8 5 4 3 1 1 1 3 3 4 14 17 15 20 22 23 22 23 25
18 18 16 13 12 10 7 4 2 1 4 6 7 8 7 7 7 7 7 6 7 7 8 8 8 7 7 7 6 6 6 7 5 5 12 14 16 18 25 25 24 25 26
17 17 17 16 14 12 11 9 8 9 11 12 12 12 10 10 9 10 11 13 11 11 11 11 11 9 10 9 8 8 9 8 8 5 7 12 17 23 29 28 30 32 33
17 17 17 16 15 14 13 14 15 16 17 17 17 17 15 14 15 11 16 14 14 14 15 14 14 12 12 11 10 12 11 11 10 8 8 10 12 25 20 27 36 35 38
19 19 16 15 14 15 17 18 19 19 19 18 19 19 19 19 16 17 15 16 16 18 18 17 16 16 15 14 13 12 12 13 11 10 12 12 16 24 24 24 23 27 33
17 20 15 13 15 16 17 19 20 22 22 21 23 21 20 21 18 16 15 16 18 19 19 18 16 15 17 16 15 14 14 15 15 13 13 13 16 17 20 22 22 24 13
14 14 16 15 15 16 16 18 20 22 22 22 24 25 23 22 18 16 16 18 19 19 17 17 17 16 16 13 13 12 13 12 13 11 11 14 13 18 18 18 22 21 21
10 11 11 13 14 14 15 16 16 18 21 23 23 23 21 20 19 18 16 17 19 19 18 16 17 17 15 13 12 13 13 14 14 12 12 13 13 15 15 15 17 21 24
9 9 9 10 12 11 12 12 13 17 19 20 21 22 21 18 16 14 14 16 19 20 18 15 17 16 13 13 12 13 13 15 14 14 14 13 14 14 15 21 23 22 18
7 7 8 9 11 12 13 12 12 13 16 18 19 20 18 16 11 14 11 15 17 17 15 15 15 14 13 13 13 13 16 15 14 14 16 17 18 19 19 20 20 17 19
5 5 6 8 8 8 9 10 11 13 14 17 19 17 15 15 14 11 12 12 13 14 14 14 14 13 13 13 14 15 13 9 9 11 16 20 21 21 21 20 19 15 17
3 3 3 5 6 7 9 10 11 12 14 16 16 16 16 15 13 12 10 11 11 12 12 11 11 11 12 12 13 12 10 10 11 15 19 19 19 21 21 18 17 12 12
6 4 5 5 6 6 6 7 9 9 11 12 12 12 11 10 10 11 11 11 11 10 10 9 9 9 10 10 11 12 12 13 16 17 14 17 17 15 15 17 16 10 12
10 8 7 8 8 8 8 8 9 9 10 10 10 10 9 8 8 7 8 8 8 7 7 7 7 8 9 11 12 12 13 13 15 13 13 12 12 15 18 19 19 21 16
14 13 11 9 10 11 10 9 10 10 10 10 11 10 10 9 7 7 7 6 6 6 6 7 8 9 10 11 12 12 12 11 14 12 11 12 14 16 16 16 15 16 15
15 15 15 15 14 13 12 10 7 10 12 11 11 10 10 8 9 8 7 5 4 6 8 9 9 9 10 10 10 10 10 11 11 9 10 11 12 13 15 13 14 14 16
22 20 20 20 19 19 17 15 14 9 10 12 12 12 11 9 9 8 8 7 7 8 9 9 8 8 8 7 7 7 8 8 8 8 8 8 7 6 10 16 16 14 15
27 24 24 25 25 24 24 22 19 17 16 14 14 13 13 12 12 11 11 10 8 8 9 9 9 8 7 7 6 6 7 6 7 8 8 9 8 7 8 12 14 15 15
32 30 29 28 28 28 27 27 25 23 22 19 17 17 15 13 13 14 14 12 11 11 11 10 9 8 8 7 6 5 6 5 5 6 7 7 7 8 9 9 10 11 13
38 34 32 31 29 28 28 28 28 28 26 25 24 23 20 19 18 18 16 15 14 13 13 11 10 9 9 9 7 6 7 6 4 5 6 5 6 6 6 8 8 9 12
42 38 35 32 32 32 31 31 32 32 31 30 29 24 22 22 21 19 17 17 16 15 15 15 14 13 12 11 10 9 8 7 5 4 4 4 3 2 3 4 4 6 8
43 40 34 34 32 33 33 29 33 33 33 31 29 27 25 26 24 24 22 21 19 18 17 17 16 16 15 14 13 11 10 9 8 6 5 4 3 2 2 2 1 1 2
45 41 37 34 34 32 30 29 28 33 35 35 33 31 30 30 29 29 27 23 22 22 21 20 19 19 18 17 15 14 13 12 10 9 7 7 7 6 6 7 6 5 5
41 41 39 37 33 31 29 28 29 31 34 35 35 35 34 34 32 31 29 27 26 25 24 23 23 21 20 20 18 17 16 15 14 12 12 11 10 9 9 10 10 9 8
38 36 35 35 33 33 29 29 31 34 35 35 35 36 36 35 34 33 31 29 28 27 27 26 26 25 24 23 22 20 19 19 18 16 15 14 14 12 11 11 11 11 11
36 34 32 30 30 31 30 30 34 36 38 38 37 37 36 36 36 35 33 31 31 30 29 29 29 28 26 25 25 24 23 22 21 19 18 17 16 15 15 14 14 14 13
Wind_Direction
359 354 350 344 340 331 316 303 303 286 267 263 244 235 241 237 219 221 224 241 244 236 239 232 218 225 195 161 147 269 350 330 302 301 317 322 333 336 335 337 338 336 333
5 3 1 359 5 13 10 354 330 109 130 143 153 154 132 122 139 145 153 139 136 120 102 109 92 93 85 74 60 51 38 23 3 332 318 337 341 344 342 345 345 343 341
14 14 16 20 23 31 49 67 84 96 102 105 110 110 107 99 100 107 106 110 107 107 102 96 86 78 71 65 58 59 51 47 37 9 328 339 343 349 350 351 350 349 349
24 23 27 31 38 48 61 77 91 97 101 97 97 94 92 92 90 101 98 103 107 103 97 91 85 78 80 77 64 61 57 51 42 25 7 355 355 351 0 356 348 348 345
32 30 34 44 57 70 75 80 85 89 89 91 93 92 89 85 86 87 100 106 107 97 89 83 81 78 75 75 68 62 55 51 41 33 22 9 359 1 360 343 340 335 341
32 33 40 55 68 74 82 85 89 90 92 95 91 91 91 85 86 98 107 105 100 96 90 83 82 80 73 71 73 66 57 46 38 26 21 16 358 356 348 347 341 345 349
31 32 35 51 60 63 75 83 85 88 92 91 94 95 93 92 91 95 100 101 99 94 88 83 78 79 76 75 71 65 54 54 49 32 25 22 1 354 350 353 350 337 325
50 36 45 55 65 69 71 76 82 92 91 88 88 91 92 92 93 96 103 104 103 99 91 79 75 72 74 72 74 71 59 60 48 43 39 32 18 7 4 1 356 345 342
64 59 58 66 70 72 76 78 88 94 96 96 91 90 88 86 93 102 107 111 99 91 88 83 74 69 66 68 71 70 64 63 60 54 51 42 35 27 20 17 9 4 351
70 69 77 79 80 84 87 97 104 102 105 106 99 90 87 87 101 109 118 106 99 92 86 79 71 64 59 61 59 56 54 41 41 54 52 47 38 37 30 32 16 5 357
86 85 89 91 93 96 105 107 109 110 105 97 95 97 97 91 91 113 111 108 106 104 91 77 68 61 59 55 54 51 46 39 37 49 44 40 35 30 25 30 25 23 11
121 111 115 109 104 110 115 115 115 113 110 106 103 96 90 91 90 94 110 112 110 102 91 80 75 69 62 61 59 56 56 63 54 49 41 29 25 19 17 21 23 30 15
187 166 163 157 154 148 140 142 143 142 132 118 114 107 101 98 99 100 100 104 102 100 98 97 92 81 75 74 60 64 60 58 54 46 35 28 21 20 15 19 26 37 21
193 183 178 178 173 171 173 174 172 165 156 151 148 143 136 132 126 126 119 117 118 116 115 115 119 107 93 84 77 67 59 58 60 50 42 28 25 27 26 17 16 18 18
204 201 197 196 191 190 191 193 197 191 188 188 183 177 173 165 153 145 148 147 142 141 140 139 132 119 106 92 79 71 62 62 59 47 43 36 37 34 25 22 23 21 27
209 211 210 206 209 207 208 198 194 202 200 197 194 194 195 184 160 149 149 150 153 168 166 143 126 108 97 87 81 74 64 58 53 51 48 41 44 44 42 44 50 36 29
218 217 212 211 212 211 212 213 202 201 198 192 187 191 188 183 178 177 170 168 187 191 173 157 138 125 113 103 89 71 58 48 57 53 53 50 37 41 55 50 60 59 48
221 219 218 217 217 216 217 218 218 218 210 208 205 201 199 197 195 193 193 185 181 189 190 175 162 149 143 137 125 105 84 75 74 81 77 75 70 56 70 55 57 62 59
221 220 220 223 223 223 222 220 220 222 222 222 216 215 210 211 205 200 199 204 198 201 201 194 185 173 165 160 150 134 108 92 96 101 97 97 91 76 63 60 63 72 71
224 226 224 223 224 224 225 223 222 224 225 224 225 222 216 214 213 211 211 212 212 209 211 208 204 197 188 182 175 165 147 133 130 121 113 106 98 81 68 56 56 71 73
221 224 221 223 225 226 226 225 226 227 227 227 231 230 230 231 229 225 223 223 223 221 218 212 206 202 201 196 191 184 173 167 162 150 136 121 103 96 76 60 45 65 83
221 220 214 214 216 220 223 226 231 230 232 232 232 230 230 232 230 230 231 230 230 228 227 225 219 214 209 208 208 208 208 206 205 203 203 196 199 225 275 300 326 6 129
219 215 213 213 217 218 216 220 222 230 230 231 231 229 223 229 228 230 232 233 231 232 231 228 226 225 222 222 225 228 229 226 225 228 230 238 241 241 254 266 269 263 237
216 213 210 212 210 211 213 215 218 229 233 233 231 231 230 233 235 236 237 236 235 233 232 233 233 232 232 234 235 238 236 237 241 245 250 255 256 255 255 257 260 261 256
216 213 211 210 208 209 212 215 219 225 234 234 234 234 236 236 238 240 240 239 239 239 239 238 238 238 238 238 240 239 242 244 247 251 256 259 259 258 259 260 259 259 255
219 217 216 214 212 211 210 213 222 227 232 236 237 239 239 239 239 240 240 240 240 241 242 242 243 243 243 244 244 244 246 248 252 256 258 259 261 260 260 260 258 257 257